When you browse on this site, cookies collect data to enhance your experience and personalize the content and advertising you see.
Visit our Privacy Policy to learn more. By continuing to use the site, you agree to this use of cookies and data.
  • în România
  • Lista ţărilor
  • Pe 7 zile
  • Temperatura apei
  • Meteo pe hartă
  • Widget-uri
  • user-avatar
    Intrare

    Meteo pe oră la Booué

    Astăzi, 29 Mai, Vineri

    Timp Temperatura Precipitaţii Vânt Presiune Umiditate
    00:00 +23°C° 0.1 mm 0 m/s 734 mmHg 96%
    01:00 +23°C° 0 mm 0 m/s 734 mmHg 97%
    02:00 +23°C° 0.1 mm 0 m/s 734 mmHg 97%
    03:00 +23°C° 0.1 mm 0 m/s 734 mmHg 98%
    04:00 +22°C° 0.1 mm 0 m/s 733 mmHg 98%
    05:00 +23°C° 0.1 mm 0 m/s 734 mmHg 98%
    06:00 +23°C° 0.1 mm 0 m/s 734 mmHg 98%
    07:00 +23°C° 0.1 mm 0 m/s 735 mmHg 97%
    08:00 +25°C° 0 mm 0 m/s 735 mmHg 90%
    09:00 +28°C° 0 mm 1 m/s 735 mmHg 82%
    10:00 +30°C° 0 mm 1 m/s 736 mmHg 74%
    11:00 +32°C° 0 mm 1 m/s 735 mmHg 68%
    12:00 +33°C° 0 mm 1 m/s 734 mmHg 63%
    13:00 +34°C° 0 mm 1 m/s 734 mmHg 57%
    14:00 +33°C° 1.6 mm 1 m/s 733 mmHg 67%
    15:00 +30°C° 1.6 mm 0 m/s 733 mmHg 77%
    16:00 +28°C° 1.6 mm 0 m/s 732 mmHg 87%
    17:00 +27°C° 1.5 mm 0 m/s 732 mmHg 89%
    18:00 +26°C° 1.5 mm 0 m/s 732 mmHg 91%
    19:00 +24°C° 1.5 mm 0 m/s 733 mmHg 93%
    20:00 +24°C° 0.1 mm 0 m/s 733 mmHg 93%
    21:00 +24°C° 0.1 mm 0 m/s 734 mmHg 94%
    22:00 +23°C° 0.1 mm 0 m/s 734 mmHg 95%
    23:00 +23°C° 0.1 mm 0 m/s 734 mmHg 96%

    Mâine, 30 Mai, Sâmbătă

    Timp Temperatura Precipitaţii Vânt Presiune Umiditate
    00:00 +23°C° 0.1 mm 0 m/s 734 mmHg 96%
    01:00 +23°C° 0.1 mm 0 m/s 734 mmHg 96%
    02:00 +23°C° 1.5 mm 0 m/s 734 mmHg 97%
    03:00 +22°C° 1.5 mm 0 m/s 734 mmHg 98%
    04:00 +22°C° 1.5 mm 0 m/s 733 mmHg 98%
    05:00 +22°C° 1.6 mm 0 m/s 734 mmHg 98%
    06:00 +23°C° 1.6 mm 0 m/s 734 mmHg 97%
    07:00 +23°C° 1.6 mm 0 m/s 735 mmHg 97%
    08:00 +23°C° 0.3 mm 0 m/s 735 mmHg 96%
    09:00 +26°C° 0.3 mm 1 m/s 735 mmHg 95%
    10:00 +26°C° 0.3 mm 1 m/s 735 mmHg 94%
    11:00 +28°C° 0.2 mm 1 m/s 735 mmHg 84%
    12:00 +30°C° 0.2 mm 1 m/s 734 mmHg 74%
    13:00 +32°C° 0.2 mm 1 m/s 734 mmHg 65%
    14:00 +29°C° 0.8 mm 0 m/s 733 mmHg 70%
    15:00 +28°C° 0.8 mm 0 m/s 733 mmHg 76%
    16:00 +27°C° 0.8 mm 0 m/s 732 mmHg 81%
    17:00 +26°C° 0.2 mm 0 m/s 733 mmHg 85%
    18:00 +25°C° 0.2 mm 0 m/s 733 mmHg 89%
    19:00 +26°C° 0.2 mm 1 m/s 734 mmHg 93%
    20:00 +26°C° 0 mm 1 m/s 734 mmHg 94%
    21:00 +24°C° 0 mm 0 m/s 734 mmHg 94%
    22:00 +24°C° 0 mm 0 m/s 734 mmHg 95%
    23:00 +23°C° 0.2 mm 0 m/s 735 mmHg 96%

    Poimâine, 31 Mai, Duminică

    Timp Temperatura Precipitaţii Vânt Presiune Umiditate
    00:00 +23°C° 0.2 mm 0 m/s 735 mmHg 96%
    01:00 +23°C° 0.2 mm 0 m/s 735 mmHg 97%
    02:00 +22°C° 0 mm 0 m/s 734 mmHg 97%
    03:00 +22°C° 0 mm 0 m/s 734 mmHg 98%
    04:00 +22°C° 0 mm 0 m/s 734 mmHg 98%
    05:00 +22°C° 0 mm 0 m/s 734 mmHg 98%
    06:00 +22°C° 0 mm 0 m/s 735 mmHg 97%
    07:00 +23°C° 0 mm 0 m/s 735 mmHg 96%
    08:00 +25°C° 0 mm 0 m/s 736 mmHg 88%
    09:00 +27°C° 0 mm 0 m/s 736 mmHg 80%
    10:00 +29°C° 0 mm 0 m/s 736 mmHg 71%
    11:00 +30°C° 0 mm 0 m/s 735 mmHg 66%
    12:00 +31°C° 0 mm 0 m/s 735 mmHg 62%
    13:00 +32°C° 0 mm 0 m/s 734 mmHg 57%
    14:00 +32°C° 0.1 mm 0 m/s 734 mmHg 58%
    15:00 +31°C° 0.1 mm 0 m/s 733 mmHg 60%
    16:00 +31°C° 0.1 mm 0 m/s 733 mmHg 62%
    17:00 +29°C° 1.4 mm 0 m/s 733 mmHg 71%
    18:00 +27°C° 1.4 mm 0 m/s 733 mmHg 80%
    19:00 +25°C° 1.4 mm 0 m/s 734 mmHg 89%
    20:00 +25°C° 0.6 mm 0 m/s 734 mmHg 90%
    21:00 +24°C° 0.6 mm 0 m/s 735 mmHg 92%
    22:00 +24°C° 0.6 mm 0 m/s 735 mmHg 93%
    23:00 +24°C° 0.1 mm 0 m/s 735 mmHg 94%

    1 Iunie, Luni

    Timp Temperatura Precipitaţii Vânt Presiune Umiditate
    00:00 +23°C° 0.1 mm 0 m/s 735 mmHg 95%
    01:00 +23°C° 0.1 mm 0 m/s 735 mmHg 97%
    02:00 +23°C° 0.2 mm 0 m/s 735 mmHg 97%
    03:00 +23°C° 0.2 mm 0 m/s 734 mmHg 98%
    04:00 +22°C° 0.2 mm 0 m/s 734 mmHg 99%
    05:00 +23°C° 0.8 mm 0 m/s 735 mmHg 98%
    06:00 +23°C° 0.8 mm 0 m/s 735 mmHg 98%
    07:00 +23°C° 0.8 mm 0 m/s 736 mmHg 98%
    08:00 +25°C° 3.7 mm 1 m/s 736 mmHg 97%
    09:00 +26°C° 3.7 mm 1 m/s 736 mmHg 96%
    10:00 +26°C° 3.7 mm 1 m/s 736 mmHg 95%
    11:00 +28°C° 0.2 mm 1 m/s 736 mmHg 87%
    12:00 +30°C° 0.2 mm 1 m/s 735 mmHg 78%
    13:00 +31°C° 0.2 mm 1 m/s 735 mmHg 69%
    14:00 +31°C° 0.8 mm 1 m/s 734 mmHg 72%
    15:00 +29°C° 0.8 mm 0 m/s 734 mmHg 74%
    16:00 +28°C° 0.8 mm 0 m/s 733 mmHg 76%
    17:00 +27°C° 0.7 mm 0 m/s 734 mmHg 83%
    18:00 +25°C° 0.7 mm 0 m/s 734 mmHg 89%
    19:00 +24°C° 0.7 mm 0 m/s 734 mmHg 96%
    20:00 +24°C° 0 mm 0 m/s 735 mmHg 96%
    21:00 +23°C° 0 mm 0 m/s 735 mmHg 96%
    22:00 +23°C° 0 mm 0 m/s 735 mmHg 97%
    23:00 +23°C° 0 mm 0 m/s 735 mmHg 97%

    2 Iunie, Marţi

    Timp Temperatura Precipitaţii Vânt Presiune Umiditate
    00:00 +22°C° 0 mm 0 m/s 735 mmHg 97%
    01:00 +22°C° 0 mm 0 m/s 735 mmHg 97%
    02:00 +22°C° 0 mm 0 m/s 734 mmHg 98%
    03:00 +22°C° 0 mm 0 m/s 734 mmHg 98%
    04:00 +22°C° 0 mm 0 m/s 734 mmHg 98%
    05:00 +22°C° 0 mm 0 m/s 734 mmHg 98%
    06:00 +22°C° 0 mm 0 m/s 735 mmHg 97%
    07:00 +22°C° 0 mm 0 m/s 735 mmHg 97%
    08:00 +26°C° 0 mm 1 m/s 736 mmHg 89%
    09:00 +28°C° 0 mm 1 m/s 736 mmHg 82%
    10:00 +29°C° 0 mm 1 m/s 737 mmHg 75%
    11:00 +30°C° 0.4 mm 1 m/s 736 mmHg 73%
    12:00 +31°C° 0.4 mm 1 m/s 735 mmHg 72%
    13:00 +31°C° 0.4 mm 1 m/s 734 mmHg 70%
    14:00 +31°C° 0.6 mm 1 m/s 734 mmHg 72%
    15:00 +31°C° 0.6 mm 1 m/s 733 mmHg 74%
    16:00 +31°C° 0.6 mm 1 m/s 733 mmHg 75%
    17:00 +29°C° 3.3 mm 1 m/s 733 mmHg 81%
    18:00 +27°C° 3.3 mm 1 m/s 733 mmHg 87%
    19:00 +26°C° 3.3 mm 1 m/s 733 mmHg 93%
    20:00 +25°C° 1.9 mm 1 m/s 734 mmHg 94%
    21:00 +25°C° 1.9 mm 1 m/s 734 mmHg 95%
    22:00 +24°C° 1.9 mm 1 m/s 735 mmHg 97%
    23:00 +24°C° 0.1 mm 1 m/s 735 mmHg 97%

    3 Iunie, Miercuri

    Timp Temperatura Precipitaţii Vânt Presiune Umiditate
    00:00 +22°C° 0.1 mm 0 m/s 734 mmHg 97%
    01:00 +22°C° 0.1 mm 0 m/s 734 mmHg 97%
    02:00 +22°C° 0 mm 0 m/s 734 mmHg 97%
    03:00 +22°C° 0 mm 0 m/s 734 mmHg 97%
    04:00 +22°C° 0 mm 0 m/s 734 mmHg 98%
    05:00 +22°C° 0 mm 0 m/s 734 mmHg 97%
    06:00 +22°C° 0 mm 0 m/s 734 mmHg 97%
    07:00 +22°C° 0 mm 0 m/s 734 mmHg 97%
    08:00 +24°C° 0 mm 0 m/s 735 mmHg 89%
    09:00 +28°C° 0 mm 1 m/s 735 mmHg 80%
    10:00 +30°C° 0 mm 1 m/s 736 mmHg 72%
    11:00 +31°C° 0 mm 1 m/s 735 mmHg 67%
    12:00 +32°C° 0 mm 1 m/s 734 mmHg 62%
    13:00 +34°C° 0 mm 1 m/s 734 mmHg 56%
    14:00 +32°C° 0.1 mm 0 m/s 733 mmHg 57%
    15:00 +31°C° 0.1 mm 0 m/s 733 mmHg 57%
    16:00 +31°C° 0.1 mm 0 m/s 732 mmHg 57%
    17:00 +29°C° 0.3 mm 0 m/s 732 mmHg 66%
    18:00 +28°C° 0.3 mm 0 m/s 733 mmHg 74%
    19:00 +26°C° 0.3 mm 0 m/s 733 mmHg 83%
    20:00 +25°C° 2.9 mm 0 m/s 734 mmHg 87%
    21:00 +26°C° 2.9 mm 1 m/s 734 mmHg 91%
    22:00 +25°C° 2.9 mm 1 m/s 735 mmHg 95%
    23:00 +25°C° 4.6 mm 1 m/s 734 mmHg 96%
    Arată mai mult